User: anonymous   Login
Location: ?????????
(38.0736°N, 23.2119°E)
Time: 10:01:31
(UTC+00:00)
Language:

CZ-4 R/B - Orbit

View from above orbital plane
View from above orbital plane
View from above satellite
View from above satellite

Ground track
Ground track

The orbit data is extracted from the following two-line orbital elements,

1 29507U 06046C   24169.88498500  .00003774  00000-0  24753-3 0  9998
2 29507  97.6430 205.9336 0038392 274.7029  84.9815 15.07698946964827
Epoch (UTC): 17 June 2024 21:14:22
Eccentricity: 0.0038392
inclination: 97.6430°
perigee height: 516 km
apogee height: 570 km
right ascension of ascending node: 205.9336°
argument of perigee: 274.7029°
revolutions per day: 15.07698946
mean anomaly at epoch: 84.9815°
orbit number at epoch: 96482

The dashed part of the orbit path shows where the satellite is in the earth's shadow,  

DLR